Regional Weather Roundup
Issued by NWS

Home | Current Version | Previous Version | Graphics & Text | Print | Product List | Glossary On
Versions: 1 2 3 4 5 6 7 8 9 10 11 12 13 14 15 16 17 18 19 20 21 22 23 24 25 26 27 28 29 30 31 32 33 34 35 36 37 38 39 40 41 42 43 44 45 46 47 48 49 50
000
ASUS43 KMPX 041501
RWRMN
WEATHER ROUNDUP FOR MINNESOTA
NATIONAL WEATHER SERVICE TWIN CITIES/CHANHASSEN MN
900 AM CST SUN DEC 04 2016


NOTE: "FAIR" INDICATES FEW OR NO CLOUDS BELOW 12,000 FEET WITH NO
SIGNIFICANT WEATHER AND/OR OBSTRUCTIONS TO VISIBILITY. N/A MEANS
CURRENT SKY AND/OR WEATHER CONDITIONS ARE NOT AVAILABLE.

MNZ060>063-068>070-041600-
   Twin Cities Metro

CITY           SKY/WX    TMP DP  RH WIND       PRES   REMARKS
TWIN CITIES    CLOUDY    33  31  92 S8        29.91F FOG     WCI  26
ST PAUL        CLOUDY    33  33 100 SE9       29.92F FOG     WCI  25
CRYSTAL        CLOUDY    33  29  85 SE8       29.89F FOG     WCI  26
BLAINE         LGT SNOW  34  34 100 SE9       29.90F FOG     WCI  26
LAKEVILLE      CLOUDY    32  32 100 S3        29.90F FOG
EDEN PRAIRIE   CLOUDY    34  32  92 S9        29.89F FOG     WCI  27
SOUTH ST PAUL  CLOUDY    33  32  96 SE7       29.91F FOG     WCI  27
LAKE ELMO      MIX PCPN  32  32 100 SE8       29.92S WCI  25
$$
MNZ001>005-007-008-013>017-022>024-027-028-041600-
   Northwest Minnesota

CITY           SKY/WX    TMP DP  RH WIND       PRES   REMARKS
BEMIDJI        CLOUDY    30  30  98 SE12      29.76F FOG     WCI  21
HALLOCK        MIX PCPN  34  32  93 S16       29.67F WCI  23
ROSEAU         CLOUDY    34  28  80 SE12G17   29.73F WCI  25
WARROAD        CLOUDY    30  27  86 SE9G18    29.75F FOG     WCI  22
THIEF RVR FALL MIX PCPN  32  31  96 SE12      29.72F WCI  23
CROOKSTON      MIX PCPN  34  32  93 S14       29.72F WCI  24
FOSSTON        LGT SNOW  30  28  93 SE7       29.73F WCI  23
DETROIT LAKES  LGT SNOW  32  32 100 S10       29.74F WCI  24
MOORHEAD       CLOUDY    34  30  86 S10       29.74F FOG     WCI  26
PARK RAPIDS    LGT SNOW  32  29  88 SE13      29.76F FOG     WCI  22
$$
MNZ006-009>011-018-025>026-041600-
   North Central Minnesota

CITY           SKY/WX    TMP DP  RH WIND       PRES   REMARKS
BAUDETTE       CLOUDY    29  26  89 SE12      29.78F WCI  19
FLAG ISLAND    FLURRIES  30  27  86 SE17      29.76F WCI  18
INTL FALLS     LGT SNOW  28  25  88 SE8       29.83F VSB 3/4 WCI  20
WASKISH        CLOUDY    30  28  93 SE8       29.78F WCI  23
BIG FORK       LGT SNOW  28  27  93 SE6       29.82F WCI  22
LONGVILLE      MIX PCPN  30  30 100 SE12      29.80F WCI  21
GRAND RAPIDS   LGT SNOW  28  27  96 SE7       29.85F VSB 3/4 WCI  21
CRANE LAKE     LGT SNOW  27  25  93 SE3       29.89F
ORR            LGT SNOW  27  25  93 S8        29.84F WCI  18
COOK           LGT SNOW  28  27  93 SE8       29.86F WCI  20
$$
MNZ012-019>021-037-041600-
   Northeast Minnesota

CITY           SKY/WX    TMP DP  RH WIND       PRES   REMARKS
DULUTH         SNOW      29  27  92 SE13      29.89F VSB 1/2 WCI  19
ELY            LGT SNOW  27  25  93 SE8       29.89F WCI  18
HIBBING        CLOUDY    27  25  92 SE13      29.86F WCI  16
EVELETH        LGT SNOW  29  28  93 SE6       29.88F WCI  23
DULUTH HARBOR  LGT SNOW  30  28  93 E5        29.94F WCI  25
TWO HARBORS    MIX PCPN  32  27  80 SE6       29.92F VSB 3/4 WCI  26
SILVER BAY     LGT SNOW  30  30 100 SE3       29.93F
GRAND MARAIS     N/A     35  27  72 SE10      30.01F WCI  27
G MARAIS ARPRT CLOUDY    27  19  74 SE7       29.95F WCI  19
$$
MNZ029>031-032-039>041-046>048-054>057-064-041600-
   West Central Minnesota

CITY           SKY/WX    TMP DP  RH WIND       PRES   REMARKS
FERGUS FALLS   CLOUDY    34  34 100 S13       29.80S FOG     WCI  25
WHEATON        CLOUDY   N/A N/A N/A S9        29.79F
MORRIS         CLOUDY    34  32  93 S12       29.78F FOG     WCI  25
ALEXANDRIA     CLOUDY    33  32  96 S13       29.79F WCI  24
ELBOW LAKE     CLOUDY    32  32  99 S15       29.77F FOG     WCI  22
WADENA         MIX PCPN  32  30  93 S10         N/A  WCI  24
GLENWOOD       MOCLDY    34  32  93 S12       29.80F FOG     WCI  25
APPLETON       MOCLDY    36  30  80 S8        29.80F
BENSON         CLOUDY    34  30  86 S9        29.81F FOG     WCI  26
ORTONVILLE     FLURRIES  34  28  80 CALM      29.79F
MADISON        PTCLDY    37  34  87 SW9       29.81F
WILLMAR        CLOUDY    36  34  93 S3        29.84F FOG
$$
MNZ033>034-036-042>043-049>051-058-059-041600-
   Central Minnesota

CITY           SKY/WX    TMP DP  RH WIND       PRES   REMARKS
ST CLOUD       CLOUDY    32  32 100 S10       29.85F FOG     WCI  24
PAYNESVILLE    FOG       33  33 100 S8        29.84F VSB 3/4 WCI  25
AITKIN         MIX PCPN  34  28  80 SE10      29.83F WCI  26
PINE RIVER     CLOUDY    30  30 100 SE10      29.84F FOG     WCI  21
BRAINERD       CLOUDY    31  30  96 SE12      29.83F FOG     WCI  22
STAPLES        CLOUDY    30  30 100 SE8       29.79F FOG     WCI  23
LONG PRAIRIE   FOG       32  32 100 SE12      29.81F VSB 1   WCI  23
LITTLE FALLS   CLOUDY    32  32 100 SE9       29.84S FOG     WCI  24
LITCHFIELD     CLOUDY    34  34 100 SE5       29.85F FOG     WCI  30
BUFFALO        CLOUDY    33  31  96 SE6       29.89F FOG     WCI  27
MAPLE LAKE     CLOUDY    33  33  99 S7        29.87F FOG     WCI  27
$$
MNZ037-044-045-052-053-041600-
   East Central Minnesota

CITY           SKY/WX    TMP DP  RH WIND       PRES   REMARKS
PRINCETON      CLOUDY    34  30  86 SE9       29.88F FOG     WCI  26
MORA           LGT SNOW  32  30  93 SE8       29.90F WCI  25
CAMBRIDGE      LGT SNOW  34  28  80 SE6       29.88F WCI  29
RUSH CITY      CLOUDY    32  28  86 SE8       29.90F WCI  25
MOOSE LAKE     LGT SNOW  30  28  93 CALM      29.88F
HINCKLEY       LGT SNOW  32  32 100 SE6       29.90F WCI  26
CLOQUET        LGT SNOW  28  27  93 SE6       29.88F VSB 1   WCI  22
MCGREGOR       CLOUDY    30  28  93 SE10      29.87S WCI  21
$$
MNZ071>073-080-081-089-090-097-098-041600-
   Southwest Minnesota

CITY           SKY/WX    TMP DP  RH WIND       PRES   REMARKS
MONTEVIDEO     MOCLDY    36  36 100 SW9       29.84S
GRANITE FALLS  PTCLDY    35  33  92 S9        29.85F WCI  27
CANBY          PTCLDY    34  31  87 SW15      29.83S WCI  25
MARSHALL       CLEAR     34  30  85 SW22      29.83F WCI  22
REDWOOD FALLS  PTSUNNY   34  31  88 S13       29.85F WCI  25
OLIVIA         CLOUDY    34  32  93 S8        29.84F FOG     WCI  27
PIPESTONE      MOCLDY    32  30  93 SW13      29.84S FOG     WCI  22
WINDOM         CLOUDY    34  30  86 SW14G20   29.86F WCI  24
WORTHINGTON    CLOUDY    33  31  92 SW15      29.86F WCI  23
JACKSON        CLOUDY    32  30  93 SW10G16   29.88F WCI  24
TRACY          SUNNY     34  32  90 SW17      29.83F WCI  24
SLAYTON        PTSUNNY   32  31  94 SW15      29.85S WCI  22
$$
MNZ065>067-074>077-082>085-091>093-041600-
   South Central Minnesota

CITY           SKY/WX    TMP DP  RH WIND       PRES   REMARKS
MANKATO        CLOUDY    33  32  96 S8        29.90F FOG     WCI  26
NEW ULM        CLOUDY    34  34 100 S8        29.88F WCI  27
ST JAMES       CLOUDY    36  34  93 S6        29.90S
FAIRMONT       CLOUDY    34  32  92 SW10      29.90F WCI  26
GLENCOE        CLOUDY    34  34 100 S5        29.87F FOG     WCI  30
FARIBAULT      CLOUDY    34  32  93 S8        29.90F FOG     WCI  27
OWATONNA       CLOUDY    34  30  86 S8        29.90S FOG     WCI  27
WASECA         FOG       32  32 100 S10       29.90F VSB 3/4 WCI  24
ALBERT LEA     CLOUDY    36  36 100 SW7       29.90S FOG
$$
MNZ078>079-086>088-094>096-041600-
   Southeast Minnesota

CITY           SKY/WX    TMP DP  RH WIND       PRES   REMARKS
ROCHESTER      LGT SNOW  32  31  96 S13       29.91F VSB 1   WCI  22
STANTON        CLOUDY    34  31  90 S8        29.90S WCI  27
DODGE CENTER   LGT SNOW  32  30  93 S14       29.90F WCI  22
WINONA         LGT SNOW  34  34 100 SE6       29.97F VSB 1   WCI  29
AUSTIN         LGT SNOW  34  30  86 S9        29.90F WCI  26
PRESTON        LGT SNOW  31  30  96 S13       29.93F VSB 3/4 WCI  21
$$
ABBREVIATIONS USED IN REMARKS
   TC - TEMPERATURES IN CELSIUS
  WCI - WIND CHILL INDEX
   HX - HEAT INDEX
  VSB - VISIBILITY
$$



USA.gov is the U.S. government's official web portal to all federal, state and local government web resources and services.